Back to catalog

THOR ABLESTAR DEB

AliveLEO
NORAD 260·DEBRIS·🇺🇸 United States

Launched Jun 29, 1961 from Cape Canaveral Space Force Station

Loading…

Next Passes (next 24 hours)

TLE

FreshSource: Space-Track

Epoch: Sep 14, 2026, 14:17 UTC

1 00260U 61015CG  26257.59540378  .00000956  00000-0  29948-3 0  9999
2 00260  66.7677 322.2968 0036450  45.1134 315.2921 14.44542438369254

Track THOR ABLESTAR DEB in real time with AllMySat

Download on the App Store